QPF
0.01 0.01 0.01 0.02 0.02 0.02 0.02 0.02 0.03 0.02 0.01 0.01 0.01 0.01 0.01 0.01 0.01 0.00 0.00 0.00 0.00 0.00 0.00 0.01 0.01 0.01 0.01 0.00 0.00 0.01 0.00 0.00 0.00 0.00 0.00 0.00 0.00 0.00 0.01 0.03 0.02 0.01 0.01 0.01
0.01 0.01 0.01 0.02 0.02 0.02 0.02 0.01 0.01 0.00 0.00 0.01 0.01 0.01 0.02 0.01 0.00 0.00 0.01 0.00 0.00 0.00 0.00 0.01 0.01 0.01 0.01 0.01 0.01 0.00 0.00 0.00 0.00 0.00 0.00 0.00 0.00 0.00 0.00 0.01 0.02 0.02 0.02 0.01
0.03 0.01 0.01 0.02 0.01 0.01 0.01 0.01 0.00 0.01 0.01 0.01 0.01 0.00 0.01 0.01 0.00 0.00 0.00 0.00 0.00 0.00 0.00 0.00 0.00 0.01 0.01 0.00 0.00 0.00 0.00 0.00 0.00 0.00 0.00 0.01 0.01 0.01 0.00 0.00 0.01 0.02 0.02 0.02
0.04 0.03 0.03 0.01 0.00 0.00 0.00 0.00 0.00 0.00 0.00 0.00 0.00 0.01 0.01 0.01 0.00 0.00 0.00 0.01 0.01 0.00 0.00 0.00 0.00 0.00 0.00 0.01 0.00 0.00 0.01 0.00 0.00 0.00 0.00 0.01 0.01 0.01 0.01 0.01 0.01 0.01 0.01 0.01
0.05 0.05 0.03 0.01 0.00 0.00 0.00 0.00 0.00 0.00 0.00 0.00 0.00 0.00 0.01 0.01 0.00 0.00 0.00 0.00 0.01 0.00 0.00 0.00 0.00 0.00 0.00 0.00 0.00 0.00 0.01 0.00 0.00 0.00 0.00 0.01 0.01 0.02 0.02 0.02 0.02 0.01 0.00 0.00
0.05 0.05 0.04 0.01 0.00 0.00 0.01 0.01 0.01 0.00 0.00 0.00 0.00 0.00 0.00 0.00 0.00 0.00 0.00 0.00 0.00 0.00 0.00 0.00 0.00 0.00 0.00 0.00 0.01 0.01 0.00 0.00 0.00 0.00 0.01 0.01 0.01 0.01 0.02 0.02 0.02 0.01 0.01 0.00
0.05 0.04 0.02 0.01 0.00 0.01 0.02 0.03 0.01 0.01 0.01 0.00 0.00 0.00 0.00 0.00 0.00 0.00 0.00 0.00 0.00 0.00 0.00 0.00 0.00 0.00 0.00 0.00 0.00 0.01 0.00 0.00 0.00 0.00 0.01 0.01 0.01 0.01 0.02 0.02 0.02 0.01 0.01 0.01
0.04 0.04 0.02 0.01 0.01 0.01 0.02 0.01 0.01 0.01 0.01 0.01 0.00 0.00 0.00 0.00 0.00 0.00 0.00 0.00 0.00 0.00 0.00 0.00 0.00 0.00 0.00 0.00 0.00 0.01 0.01 0.01 0.01 0.01 0.01 0.01 0.02 0.02 0.02 0.02 0.02 0.01 0.01 0.01
0.04 0.03 0.01 0.01 0.01 0.01 0.01 0.00 0.00 0.00 0.00 0.00 0.00 0.00 0.00 0.00 0.00 0.00 0.00 0.00 0.00 0.00 0.00 0.00 0.00 0.00 0.00 0.00 0.00 0.00 0.01 0.01 0.01 0.01 0.01 0.01 0.02 0.02 0.02 0.02 0.02 0.02 0.02 0.01
0.03 0.02 0.01 0.01 0.00 0.00 0.00 0.00 0.00 0.00 0.00 0.00 0.00 0.00 0.00 0.00 0.00 0.00 0.00 0.00 0.00 0.00 0.00 0.00 0.00 0.00 0.00 0.00 0.00 0.00 0.01 0.01 0.00 0.00 0.00 0.00 0.01 0.02 0.02 0.02 0.02 0.02 0.02 0.01
0.03 0.02 0.01 0.01 0.00 0.00 0.00 0.00 0.00 0.00 0.00 0.00 0.00 0.00 0.00 0.00 0.00 0.00 0.00 0.00 0.00 0.00 0.00 0.00 0.00 0.00 0.01 0.00 0.00 0.00 0.01 0.01 0.01 0.01 0.01 0.00 0.01 0.01 0.02 0.02 0.02 0.02 0.02 0.01
0.04 0.02 0.01 0.00 0.00 0.00 0.00 0.00 0.00 0.00 0.00 0.00 0.01 0.01 0.01 0.01 0.00 0.00 0.00 0.00 0.00 0.00 0.00 0.00 0.00 0.00 0.01 0.00 0.00 0.00 0.01 0.01 0.01 0.01 0.01 0.01 0.00 0.01 0.01 0.02 0.02 0.03 0.03 0.02
0.03 0.01 0.01 0.00 0.00 0.00 0.00 0.00 0.00 0.00 0.00 0.01 0.01 0.01 0.02 0.01 0.01 0.01 0.01 0.00 0.00 0.00 0.00 0.01 0.01 0.01 0.01 0.01 0.00 0.00 0.00 0.01 0.00 0.00 0.00 0.01 0.01 0.00 0.01 0.01 0.02 0.02 0.02 0.02
0.02 0.01 0.00 0.00 0.00 0.00 0.00 0.00 0.00 0.00 0.01 0.01 0.01 0.02 0.02 0.02 0.02 0.02 0.01 0.01 0.01 0.01 0.01 0.01 0.01 0.01 0.01 0.01 0.00 0.00 0.00 0.00 0.00 0.00 0.00 0.00 0.01 0.01 0.01 0.01 0.01 0.01 0.02 0.03
0.00 0.00 0.00 0.00 0.00 0.00 0.00 0.00 0.00 0.00 0.01 0.01 0.01 0.02 0.02 0.02 0.02 0.02 0.01 0.01 0.01 0.00 0.00 0.00 0.01 0.01 0.01 0.01 0.00 0.00 0.00 0.00 0.01 0.00 0.01 0.01 0.01 0.01 0.01 0.01 0.01 0.02 0.02 0.02
0.00 0.00 0.00 0.00 0.00 0.00 0.00 0.00 0.01 0.01 0.01 0.01 0.02 0.02 0.02 0.03 0.03 0.02 0.01 0.01 0.01 0.01 0.00 0.00 0.01 0.01 0.01 0.01 0.00 0.00 0.00 0.01 0.01 0.01 0.01 0.01 0.01 0.01 0.00 0.00 0.01 0.01 0.01 0.01
0.00 0.00 0.00 0.00 0.00 0.00 0.00 0.00 0.01 0.01 0.01 0.01 0.02 0.02 0.02 0.03 0.04 0.03 0.03 0.02 0.02 0.01 0.01 0.01 0.01 0.01 0.01 0.01 0.01 0.00 0.01 0.01 0.01 0.01 0.00 0.01 0.01 0.01 0.01 0.00 0.00 0.00 0.00 0.00
0.01 0.00 0.00 0.00 0.00 0.00 0.01 0.01 0.01 0.01 0.01 0.01 0.01 0.01 0.02 0.02 0.03 0.03 0.03 0.03 0.02 0.02 0.01 0.01 0.01 0.01 0.01 0.01 0.01 0.01 0.01 0.01 0.01 0.00 0.01 0.01 0.01 0.00 0.00 0.01 0.01 0.00 0.00 0.00
0.01 0.01 0.01 0.00 0.00 0.00 0.01 0.01 0.02 0.02 0.01 0.01 0.01 0.01 0.02 0.02 0.02 0.03 0.03 0.03 0.02 0.02 0.01 0.01 0.01 0.01 0.02 0.02 0.02 0.02 0.02 0.02 0.01 0.01 0.01 0.01 0.01 0.01 0.01 0.01 0.01 0.01 0.01 0.01
0.01 0.01 0.01 0.01 0.01 0.01 0.01 0.02 0.02 0.02 0.02 0.01 0.01 0.01 0.01 0.02 0.02 0.03 0.04 0.04 0.03 0.02 0.01 0.01 0.02 0.02 0.02 0.03 0.03 0.02 0.02 0.02 0.02 0.02 0.01 0.01 0.01 0.01 0.01 0.01 0.01 0.01 0.01 0.01
0.01 0.01 0.01 0.01 0.01 0.01 0.01 0.01 0.01 0.02 0.01 0.02 0.02 0.02 0.02 0.02 0.02 0.03 0.04 0.04 0.03 0.02 0.02 0.02 0.02 0.03 0.03 0.04 0.03 0.02 0.02 0.02 0.02 0.02 0.02 0.01 0.01 0.01 0.01 0.01 0.01 0.01 0.01 0.01
0.01 0.01 0.01 0.01 0.01 0.01 0.01 0.01 0.01 0.01 0.01 0.01 0.02 0.02 0.03 0.02 0.02 0.03 0.04 0.04 0.03 0.02 0.02 0.03 0.03 0.04 0.05 0.05 0.04 0.03 0.02 0.02 0.02 0.02 0.02 0.02 0.02 0.02 0.02 0.01 0.01 0.01 0.01 0.01
0.02 0.02 0.02 0.02 0.02 0.02 0.01 0.01 0.01 0.01 0.00 0.01 0.02 0.04 0.05 0.04 0.03 0.03 0.05 0.05 0.04 0.03 0.02 0.02 0.04 0.05 0.05 0.05 0.05 0.03 0.03 0.03 0.03 0.03 0.03 0.03 0.03 0.02 0.02 0.01 0.01 0.01 0.02 0.02
0.02 0.02 0.02 0.02 0.02 0.02 0.02 0.01 0.01 0.01 0.01 0.02 0.04 0.05 0.05 0.04 0.03 0.03 0.04 0.05 0.05 0.04 0.03 0.02 0.03 0.04 0.04 0.05 0.06 0.04 0.04 0.04 0.03 0.03 0.03 0.04 0.04 0.03 0.02 0.02 0.02 0.02 0.01 0.02
0.02 0.01 0.01 0.01 0.01 0.01 0.01 0.01 0.01 0.01 0.02 0.02 0.03 0.04 0.05 0.04 0.03 0.02 0.02 0.04 0.05 0.05 0.04 0.03 0.03 0.03 0.03 0.03 0.04 0.04 0.03 0.03 0.03 0.03 0.03 0.03 0.03 0.03 0.03 0.02 0.02 0.02 0.02 0.02
0.02 0.02 0.01 0.01 0.01 0.01 0.01 0.01 0.01 0.01 0.01 0.01 0.02 0.03 0.03 0.04 0.04 0.03 0.02 0.02 0.03 0.04 0.04 0.04 0.03 0.03 0.02 0.02 0.02 0.02 0.02 0.02 0.02 0.02 0.02 0.02 0.02 0.02 0.02 0.02 0.02 0.02 0.02 0.02
0.02 0.01 0.01 0.01 0.01 0.01 0.01 0.01 0.00 0.01 0.01 0.01 0.02 0.02 0.02 0.02 0.02 0.02 0.02 0.02 0.02 0.02 0.03 0.03 0.03 0.03 0.02 0.02 0.01 0.01 0.01 0.01 0.01 0.01 0.01 0.01 0.01 0.01 0.01 0.01 0.01 0.01 0.01 0.02
MSLP
1015.17 1015.41 1015.60 1015.75 1015.83 1015.85 1015.77 1015.59 1015.31 1014.93 1014.47 1013.97 1013.49 1013.06 1012.74 1012.54 1012.48 1012.56 1012.74 1013.01 1013.31 1013.61 1013.89 1014.15 1014.38 1014.60 1014.84 1015.10 1015.39 1015.72 1016.05 1016.37 1016.66 1016.89 1017.05 1017.14 1017.16 1017.15 1017.12 1017.10 1017.11 1017.14 1017.20 1017.26
1015.32 1015.50 1015.59 1015.58 1015.47 1015.27 1014.99 1014.62 1014.19 1013.73 1013.26 1012.82 1012.45 1012.18 1012.03 1012.02 1012.13 1012.35 1012.65 1013.00 1013.36 1013.71 1014.04 1014.34 1014.62 1014.91 1015.20 1015.53 1015.88 1016.25 1016.63 1016.98 1017.29 1017.54 1017.72 1017.83 1017.89 1017.91 1017.92 1017.94 1017.97 1018.02 1018.08 1018.13
1015.49 1015.61 1015.60 1015.45 1015.17 1014.78 1014.30 1013.77 1013.21 1012.67 1012.18 1011.78 1011.50 1011.36 1011.36 1011.50 1011.77 1012.12 1012.53 1012.97 1013.41 1013.82 1014.21 1014.58 1014.93 1015.28 1015.65 1016.04 1016.45 1016.86 1017.26 1017.64 1017.96 1018.22 1018.42 1018.55 1018.63 1018.68 1018.73 1018.77 1018.83 1018.89 1018.96 1019.00
1015.59 1015.66 1015.57 1015.31 1014.90 1014.37 1013.76 1013.10 1012.44 1011.84 1011.33 1010.96 1010.74 1010.70 1010.82 1011.08 1011.46 1011.93 1012.44 1012.96 1013.48 1013.97 1014.43 1014.86 1015.29 1015.72 1016.15 1016.60 1017.05 1017.50 1017.92 1018.30 1018.63 1018.90 1019.09 1019.24 1019.34 1019.42 1019.49 1019.56 1019.65 1019.73 1019.80 1019.85
1015.53 1015.55 1015.40 1015.08 1014.61 1014.00 1013.31 1012.59 1011.89 1011.26 1010.76 1010.41 1010.25 1010.28 1010.48 1010.83 1011.30 1011.84 1012.43 1013.02 1013.60 1014.16 1014.69 1015.20 1015.69 1016.18 1016.68 1017.17 1017.66 1018.13 1018.56 1018.94 1019.27 1019.53 1019.73 1019.88 1020.00 1020.11 1020.21 1020.31 1020.42 1020.53 1020.62 1020.68
1015.19 1015.18 1015.01 1014.68 1014.20 1013.59 1012.90 1012.19 1011.51 1010.91 1010.44 1010.14 1010.03 1010.11 1010.37 1010.78 1011.30 1011.89 1012.52 1013.17 1013.80 1014.41 1014.99 1015.56 1016.11 1016.65 1017.19 1017.72 1018.24 1018.72 1019.15 1019.54 1019.86 1020.12 1020.32 1020.49 1020.63 1020.77 1020.90 1021.04 1021.19 1021.32 1021.44 1021.51
1014.51 1014.49 1014.33 1014.03 1013.60 1013.05 1012.44 1011.81 1011.21 1010.69 1010.30 1010.08 1010.03 1010.16 1010.46 1010.90 1011.45 1012.07 1012.73 1013.39 1014.05 1014.69 1015.32 1015.92 1016.51 1017.10 1017.67 1018.22 1018.75 1019.24 1019.68 1020.06 1020.39 1020.65 1020.88 1021.07 1021.24 1021.42 1021.59 1021.78 1021.96 1022.13 1022.27 1022.36
1013.46 1013.45 1013.33 1013.10 1012.77 1012.35 1011.87 1011.38 1010.91 1010.53 1010.25 1010.12 1010.15 1010.34 1010.68 1011.15 1011.71 1012.34 1013.00 1013.67 1014.34 1014.99 1015.63 1016.26 1016.87 1017.48 1018.07 1018.64 1019.18 1019.67 1020.12 1020.52 1020.85 1021.14 1021.40 1021.62 1021.84 1022.07 1022.29 1022.52 1022.75 1022.95 1023.11 1023.22
1012.13 1012.13 1012.06 1011.93 1011.72 1011.46 1011.15 1010.83 1010.54 1010.31 1010.18 1010.17 1010.29 1010.55 1010.94 1011.43 1012.00 1012.63 1013.28 1013.95 1014.61 1015.27 1015.91 1016.54 1017.16 1017.78 1018.38 1018.95 1019.50 1020.01 1020.47 1020.88 1021.25 1021.58 1021.87 1022.15 1022.43 1022.70 1022.98 1023.26 1023.52 1023.76 1023.94 1024.05
1010.64 1010.65 1010.65 1010.62 1010.55 1010.44 1010.31 1010.17 1010.06 1010.00 1010.02 1010.14 1010.36 1010.70 1011.14 1011.66 1012.25 1012.88 1013.53 1014.18 1014.84 1015.48 1016.12 1016.75 1017.37 1017.98 1018.58 1019.16 1019.72 1020.24 1020.73 1021.17 1021.57 1021.95 1022.29 1022.63 1022.96 1023.29 1023.62 1023.94 1024.24 1024.49 1024.68 1024.79
1009.16 1009.20 1009.25 1009.30 1009.35 1009.38 1009.41 1009.44 1009.49 1009.59 1009.75 1009.99 1010.31 1010.73 1011.22 1011.78 1012.39 1013.03 1013.69 1014.34 1014.99 1015.63 1016.25 1016.87 1017.49 1018.09 1018.69 1019.28 1019.84 1020.38 1020.89 1021.37 1021.82 1022.24 1022.64 1023.03 1023.42 1023.80 1024.17 1024.52 1024.83 1025.10 1025.29 1025.39
1007.85 1007.90 1008.00 1008.12 1008.25 1008.39 1008.53 1008.69 1008.87 1009.10 1009.37 1009.72 1010.13 1010.62 1011.17 1011.78 1012.42 1013.08 1013.75 1014.41 1015.06 1015.70 1016.32 1016.93 1017.54 1018.14 1018.73 1019.32 1019.90 1020.46 1020.99 1021.50 1021.99 1022.46 1022.91 1023.34 1023.77 1024.18 1024.58 1024.94 1025.27 1025.53 1025.72 1025.81
1006.80 1006.87 1006.99 1007.15 1007.34 1007.55 1007.77 1008.01 1008.28 1008.58 1008.94 1009.36 1009.85 1010.40 1011.01 1011.66 1012.34 1013.03 1013.73 1014.41 1015.07 1015.71 1016.33 1016.95 1017.55 1018.15 1018.74 1019.33 1019.92 1020.49 1021.05 1021.59 1022.11 1022.61 1023.10 1023.56 1024.01 1024.44 1024.84 1025.21 1025.53 1025.78 1025.95 1026.04
1006.01 1006.09 1006.24 1006.43 1006.64 1006.88 1007.14 1007.42 1007.73 1008.08 1008.49 1008.96 1009.50 1010.10 1010.75 1011.45 1012.18 1012.91 1013.64 1014.35 1015.03 1015.69 1016.33 1016.94 1017.55 1018.15 1018.74 1019.34 1019.93 1020.52 1021.09 1021.66 1022.20 1022.73 1023.23 1023.71 1024.16 1024.59 1024.99 1025.34 1025.64 1025.88 1026.04 1026.12
1005.38 1005.50 1005.66 1005.87 1006.11 1006.36 1006.63 1006.92 1007.25 1007.62 1008.05 1008.55 1009.12 1009.76 1010.46 1011.20 1011.97 1012.75 1013.51 1014.26 1014.98 1015.66 1016.31 1016.94 1017.55 1018.16 1018.76 1019.36 1019.96 1020.56 1021.15 1021.73 1022.29 1022.83 1023.34 1023.82 1024.26 1024.67 1025.05 1025.38 1025.66 1025.88 1026.03 1026.11
1004.78 1004.94 1005.14 1005.37 1005.63 1005.89 1006.16 1006.46 1006.79 1007.17 1007.61 1008.12 1008.72 1009.39 1010.13 1010.91 1011.73 1012.55 1013.36 1014.15 1014.90 1015.61 1016.29 1016.94 1017.56 1018.18 1018.79 1019.41 1020.02 1020.63 1021.24 1021.82 1022.39 1022.93 1023.44 1023.91 1024.35 1024.74 1025.09 1025.39 1025.65 1025.85 1026.00 1026.09
1004.05 1004.26 1004.52 1004.79 1005.07 1005.36 1005.65 1005.96 1006.30 1006.68 1007.14 1007.68 1008.30 1009.00 1009.78 1010.60 1011.46 1012.33 1013.18 1014.01 1014.80 1015.54 1016.25 1016.92 1017.57 1018.21 1018.84 1019.47 1020.09 1020.72 1021.34 1021.94 1022.52 1023.06 1023.57 1024.03 1024.45 1024.82 1025.14 1025.42 1025.66 1025.85 1026.00 1026.11
1003.09 1003.37 1003.69 1004.02 1004.35 1004.68 1005.00 1005.33 1005.70 1006.12 1006.60 1007.17 1007.82 1008.57 1009.38 1010.25 1011.15 1012.06 1012.96 1013.83 1014.65 1015.43 1016.17 1016.87 1017.55 1018.21 1018.86 1019.51 1020.17 1020.82 1021.45 1022.07 1022.66 1023.21 1023.72 1024.17 1024.58 1024.93 1025.24 1025.50 1025.73 1025.92 1026.08 1026.20
1001.87 1002.23 1002.62 1003.02 1003.41 1003.79 1004.17 1004.55 1004.96 1005.42 1005.96 1006.57 1007.28 1008.06 1008.93 1009.84 1010.79 1011.74 1012.68 1013.58 1014.44 1015.26 1016.03 1016.76 1017.47 1018.16 1018.85 1019.53 1020.21 1020.89 1021.55 1022.19 1022.80 1023.36 1023.88 1024.33 1024.73 1025.08 1025.38 1025.64 1025.86 1026.05 1026.21 1026.35
1000.51 1000.94 1001.39 1001.85 1002.30 1002.74 1003.18 1003.62 1004.10 1004.62 1005.21 1005.89 1006.65 1007.49 1008.41 1009.37 1010.36 1011.35 1012.33 1013.27 1014.16 1015.01 1015.81 1016.58 1017.32 1018.05 1018.77 1019.49 1020.21 1020.92 1021.61 1022.28 1022.91 1023.49 1024.02 1024.48 1024.89 1025.24 1025.54 1025.80 1026.03 1026.22 1026.39 1026.54
999.16 999.63 1000.13 1000.63 1001.13 1001.63 1002.12 1002.62 1003.16 1003.75 1004.41 1005.15 1005.97 1006.88 1007.84 1008.85 1009.88 1010.91 1011.92 1012.89 1013.82 1014.70 1015.54 1016.34 1017.12 1017.89 1018.64 1019.40 1020.15 1020.90 1021.62 1022.32 1022.97 1023.57 1024.12 1024.60 1025.02 1025.38 1025.69 1025.96 1026.19 1026.40 1026.58 1026.73
998.02 998.50 999.01 999.53 1000.05 1000.57 1001.10 1001.66 1002.25 1002.90 1003.62 1004.42 1005.31 1006.26 1007.27 1008.32 1009.39 1010.45 1011.49 1012.49 1013.44 1014.35 1015.22 1016.06 1016.87 1017.67 1018.47 1019.26 1020.05 1020.82 1021.58 1022.30 1022.98 1023.60 1024.16 1024.66 1025.09 1025.47 1025.79 1026.08 1026.32 1026.54 1026.73 1026.90
997.24 997.69 998.17 998.67 999.19 999.71 1000.26 1000.84 1001.47 1002.16 1002.93 1003.78 1004.70 1005.70 1006.75 1007.83 1008.92 1010.01 1011.06 1012.08 1013.06 1013.99 1014.89 1015.76 1016.60 1017.44 1018.27 1019.09 1019.91 1020.71 1021.49 1022.23 1022.93 1023.56 1024.14 1024.66 1025.11 1025.50 1025.84 1026.14 1026.41 1026.64 1026.84 1027.02
996.90 997.29 997.71 998.16 998.63 999.13 999.67 1000.25 1000.89 1001.61 1002.40 1003.28 1004.23 1005.25 1006.32 1007.42 1008.53 1009.62 1010.69 1011.72 1012.71 1013.66 1014.58 1015.47 1016.34 1017.20 1018.06 1018.90 1019.74 1020.56 1021.36 1022.12 1022.83 1023.48 1024.07 1024.60 1025.06 1025.47 1025.83 1026.16 1026.44 1026.69 1026.91 1027.10
996.96 997.27 997.62 998.00 998.41 998.86 999.36 999.92 1000.56 1001.28 1002.08 1002.97 1003.93 1004.96 1006.03 1007.13 1008.23 1009.32 1010.39 1011.42 1012.41 1013.37 1014.30 1015.21 1016.10 1016.98 1017.85 1018.71 1019.57 1020.40 1021.21 1021.97 1022.69 1023.35 1023.95 1024.49 1024.97 1025.40 1025.78 1026.12 1026.43 1026.71 1026.95 1027.16
997.33 997.56 997.82 998.13 998.47 998.87 999.33 999.86 1000.47 1001.18 1001.97 1002.84 1003.80 1004.81 1005.87 1006.95 1008.04 1009.11 1010.16 1011.19 1012.17 1013.13 1014.06 1014.98 1015.87 1016.76 1017.65 1018.52 1019.38 1020.22 1021.03 1021.80 1022.52 1023.19 1023.80 1024.35 1024.85 1025.29 1025.70 1026.06 1026.40 1026.70 1026.97 1027.20
997.84 998.00 998.19 998.43 998.71 999.06 999.48 999.98 1000.57 1001.26 1002.03 1002.88 1003.81 1004.80 1005.83 1006.88 1007.93 1008.98 1010.00 1011.00 1011.97 1012.92 1013.85 1014.76 1015.66 1016.56 1017.45 1018.33 1019.19 1020.04 1020.85 1021.62 1022.35 1023.02 1023.64 1024.20 1024.71 1025.18 1025.60 1025.99 1026.35 1026.68 1026.98 1027.24
Thickness
5689 5696 5696 5695 5697 5700 5698 5700 5695 5702 5708 5719 5728 5730 5733 5735 5735 5735 5734 5734 5734 5732 5731 5729 5728 5728 5726 5724 5722 5720 5715 5711 5708 5706 5704 5702 5701 5700 5699 5697 5696 5694 5692 5690
5681 5690 5691 5688 5694 5697 5698 5700 5704 5706 5707 5724 5729 5730 5729 5729 5729 5728 5729 5730 5731 5731 5729 5727 5727 5725 5724 5722 5721 5719 5714 5710 5707 5705 5702 5699 5698 5696 5694 5693 5692 5691 5689 5687
5667 5680 5679 5674 5692 5695 5696 5702 5704 5699 5707 5719 5719 5720 5722 5723 5724 5724 5725 5726 5727 5728 5728 5728 5727 5726 5723 5722 5721 5717 5713 5709 5706 5703 5699 5697 5695 5693 5690 5689 5688 5686 5685 5683
5662 5665 5653 5683 5705 5703 5696 5700 5707 5708 5710 5714 5715 5719 5722 5724 5721 5721 5722 5722 5724 5726 5726 5728 5729 5728 5725 5722 5719 5715 5711 5707 5704 5701 5697 5695 5692 5690 5688 5686 5684 5682 5681 5680
5655 5653 5663 5684 5696 5697 5690 5691 5704 5704 5706 5710 5715 5714 5713 5719 5721 5719 5720 5721 5722 5724 5725 5726 5726 5726 5724 5719 5717 5713 5709 5706 5703 5700 5696 5692 5689 5687 5686 5684 5681 5679 5678 5676
5650 5644 5648 5673 5695 5703 5693 5681 5700 5702 5700 5703 5704 5691 5697 5712 5716 5716 5717 5718 5719 5721 5722 5721 5722 5723 5719 5716 5713 5710 5708 5705 5703 5699 5695 5691 5688 5686 5684 5682 5679 5677 5675 5673
5646 5645 5655 5679 5694 5694 5669 5673 5695 5699 5698 5699 5695 5696 5703 5709 5710 5711 5712 5713 5715 5715 5715 5716 5718 5717 5714 5712 5710 5710 5708 5704 5700 5697 5693 5690 5687 5684 5681 5679 5676 5673 5671 5670
5646 5641 5650 5681 5684 5677 5678 5691 5692 5693 5694 5694 5696 5698 5701 5702 5702 5704 5704 5706 5708 5708 5708 5711 5713 5711 5709 5707 5709 5708 5704 5700 5697 5694 5691 5688 5683 5680 5678 5675 5671 5669 5667 5664
5652 5653 5669 5678 5678 5685 5688 5686 5688 5688 5690 5690 5690 5691 5693 5694 5696 5697 5698 5699 5701 5701 5702 5704 5707 5706 5703 5704 5705 5703 5699 5695 5693 5690 5687 5685 5680 5676 5673 5670 5666 5664 5662 5659
5652 5658 5666 5671 5676 5680 5682 5682 5685 5686 5686 5686 5684 5686 5687 5688 5689 5691 5692 5693 5694 5694 5694 5696 5699 5700 5700 5701 5700 5697 5693 5691 5688 5685 5682 5680 5677 5673 5669 5666 5663 5661 5658 5655
5647 5654 5659 5663 5668 5673 5675 5679 5681 5681 5682 5681 5680 5680 5681 5682 5683 5684 5686 5687 5688 5688 5688 5690 5693 5694 5695 5696 5695 5691 5689 5686 5684 5681 5678 5674 5671 5669 5667 5665 5663 5660 5657 5654
5638 5649 5650 5655 5664 5669 5668 5669 5672 5674 5674 5676 5676 5675 5676 5676 5678 5679 5680 5681 5681 5682 5684 5685 5687 5688 5690 5690 5689 5686 5683 5681 5679 5676 5673 5670 5666 5662 5662 5660 5659 5657 5655 5651
5643 5650 5653 5658 5661 5663 5663 5665 5668 5668 5668 5668 5670 5671 5670 5670 5671 5672 5673 5674 5676 5677 5678 5680 5680 5682 5683 5684 5683 5681 5678 5676 5674 5671 5669 5665 5662 5658 5654 5652 5651 5650 5648 5645
5641 5644 5644 5649 5651 5656 5658 5660 5662 5663 5663 5663 5663 5664 5664 5664 5664 5665 5666 5668 5670 5671 5672 5673 5673 5674 5677 5677 5676 5675 5673 5671 5669 5666 5664 5661 5659 5656 5652 5647 5643 5641 5640 5638
5634 5638 5638 5642 5645 5647 5650 5651 5651 5652 5653 5654 5656 5656 5656 5656 5656 5658 5660 5662 5663 5663 5664 5665 5666 5667 5669 5670 5669 5668 5666 5664 5663 5661 5658 5656 5654 5650 5647 5643 5639 5636 5633 5630
5627 5629 5631 5632 5633 5636 5638 5639 5640 5642 5644 5645 5646 5647 5649 5650 5650 5651 5653 5655 5654 5654 5656 5657 5657 5659 5661 5660 5660 5659 5658 5658 5656 5653 5651 5649 5646 5643 5640 5637 5633 5630 5627 5624
5616 5616 5618 5619 5622 5624 5626 5629 5631 5634 5635 5636 5637 5639 5640 5640 5641 5642 5644 5646 5647 5647 5648 5648 5648 5650 5651 5651 5651 5650 5649 5648 5647 5645 5643 5641 5639 5636 5633 5631 5627 5624 5621 5619
5611 5612 5614 5614 5615 5616 5618 5621 5623 5625 5626 5628 5629 5630 5630 5630 5630 5632 5634 5636 5636 5637 5638 5639 5640 5641 5641 5641 5641 5641 5640 5639 5637 5636 5634 5633 5631 5629 5626 5623 5620 5617 5613 5610
5603 5604 5606 5607 5608 5609 5610 5612 5615 5617 5618 5619 5619 5619 5620 5622 5623 5623 5624 5624 5625 5625 5626 5629 5630 5631 5631 5630 5630 5630 5630 5629 5627 5626 5624 5623 5621 5619 5617 5614 5611 5609 5605 5602
5593 5595 5596 5597 5599 5600 5601 5603 5606 5607 5609 5609 5609 5610 5610 5612 5613 5613 5614 5612 5613 5614 5617 5618 5619 5619 5619 5619 5619 5619 5619 5618 5616 5614 5613 5612 5610 5609 5607 5605 5602 5600 5596 5593
5582 5584 5585 5586 5587 5590 5592 5594 5596 5597 5599 5600 5600 5600 5601 5602 5604 5604 5602 5600 5602 5604 5606 5606 5607 5607 5608 5608 5607 5607 5607 5606 5605 5603 5602 5601 5599 5598 5596 5595 5592 5590 5587 5584
5571 5573 5575 5576 5577 5579 5582 5585 5586 5588 5589 5589 5590 5591 5591 5591 5592 5592 5591 5590 5592 5592 5593 5594 5595 5595 5596 5596 5595 5595 5595 5594 5593 5593 5591 5590 5588 5586 5584 5583 5581 5579 5576 5573
5562 5564 5565 5566 5568 5570 5573 5575 5576 5577 5578 5579 5579 5580 5580 5580 5580 5580 5579 5580 5581 5581 5582 5582 5583 5583 5584 5583 5584 5583 5583 5582 5582 5581 5580 5578 5577 5575 5573 5571 5569 5567 5564 5562
5552 5554 5556 5558 5559 5560 5561 5564 5565 5567 5568 5569 5569 5570 5569 5569 5569 5570 5570 5569 5569 5569 5570 5570 5570 5571 5571 5571 5572 5571 5571 5570 5569 5569 5568 5566 5565 5563 5561 5559 5556 5554 5552 5549
5543 5545 5546 5547 5548 5549 5550 5552 5553 5554 5555 5557 5558 5559 5559 5559 5559 5559 5559 5558 5558 5557 5557 5558 5558 5559 5559 5559 5559 5559 5558 5558 5558 5557 5555 5554 5552 5549 5547 5545 5543 5541 5539 5537
5532 5534 5535 5536 5538 5539 5540 5541 5541 5541 5542 5543 5544 5546 5546 5547 5547 5547 5546 5546 5546 5545 5545 5545 5546 5546 5546 5546 5546 5546 5546 5545 5545 5543 5542 5541 5539 5537 5535 5533 5531 5528 5526 5524
5523 5524 5524 5525 5527 5528 5529 5529 5530 5530 5531 5531 5531 5533 5534 5535 5535 5534 5534 5534 5533 5533 5533 5533 5534 5534 5534 5534 5534 5533 5533 5532 5531 5530 5529 5528 5526 5524 5522 5520 5518 5516 5514 5512